FW9262 Weather Reports


time (UTC)temp
C
wind
direction
speed
KPH
gust
KPH
rain 1hr
cm
rain 24hr
cm
rain mn
cm
humidity
%
barometer
mb
20260504202424 18 244 9.7 14.5 0.00 0.00 0.00 65 1018.3
20260504201920 18 306 6.4 14.5 0.00 0.00 0.00 64 1018.3
20260504201418 19 248 11.3 16.1 0.00 0.00 0.00 62 1018.3
20260504200915 19 196 4.8 12.9 0.00 0.00 0.00 61 1018.3
20260504200412 19 279 6.4 12.9 0.00 0.00 0.00 61 1018.7
20260504195908 19 285 4.8 11.3 0.00 0.00 0.00 61 1018.3
20260504195404 19 245 6.4 16.1 0.00 0.00 0.00 59 1018.3
20260504194901 19 300 4.8 11.3 0.00 0.00 0.00 61 1018.3
20260504194357 18 259 8.0 11.3 0.00 0.00 0.00 61 1018.3
20260504193853 19 221 6.4 11.3 0.00 0.00 0.00 61 1018.7
20260504193350 18 87 6.4 14.5 0.00 0.00 0.00 61 1018.3
20260504192849 19 131 4.8 11.3 0.00 0.00 0.00 62 1018.7
20260504192346 19 244 9.7 12.9 0.00 0.00 0.00 62 1018.7
20260504191844 19 213 6.4 11.3 0.00 0.00 0.00 64 1018.7
20260504191342 19 224 6.4 12.9 0.00 0.00 0.00 63 1018.3
20260504190837 19 324 4.8 11.3 0.00 0.00 0.00 62 1018.3
20260504190333 18 258 3.2 6.4 0.00 0.00 0.00 63 1018.7
20260504185830 18 314 6.4 12.9 0.00 0.00 0.00 64 1018.3
20260504185327 18 297 3.2 11.3 0.00 0.00 0.00 64 1018.7
20260504184823 18 230 3.2 9.7 0.00 0.00 0.00 61 1018.3
20260504184319 18 266 11.3 14.5 0.00 0.00 0.00 66 1018.7
20260504183815 18 285 8.0 14.5 0.00 0.00 0.00 66 1018.7
20260504183313 18 239 6.4 14.5 0.00 0.00 0.00 64 1018.7
20260504182810 18 271 9.7 12.9 0.00 0.00 0.00 63 1018.7
20260504182308 18 260 3.2 11.3 0.00 0.00 0.00 63 1018.7
20260504181805 18 321 8.0 14.5 0.00 0.00 0.00 64 1018.7
20260504181302 18 315 4.8 17.7 0.00 0.00 0.00 63 1018.7
20260504180801 19 256 6.4 16.1 0.00 0.00 0.00 60 1018.7
20260504180259 18 93 3.2 14.5 0.00 0.00 0.00 63 1018.7
20260504175757 18 214 4.8 16.1 0.00 0.00 0.00 65 1018.7
20260504175253 17 188 4.8 12.9 0.00 0.00 0.00 65 1018.3
20260504174751 17 225 6.4 11.3 0.00 0.00 0.00 65 1018.7
20260504174249 17 315 4.8 16.1 0.00 0.00 0.00 65 1018.7
20260504173745 17 228 9.7 12.9 0.00 0.00 0.00 66 1018.7
20260504173242 17 282 9.7 16.1 0.00 0.00 0.00 65 1018.7
20260504172739 17 292 3.2 12.9 0.00 0.00 0.00 66 1018.3
20260504172236 18 257 6.4 12.9 0.00 0.00 0.00 66 1018.7
20260504171732 18 232 4.8 14.5 0.00 0.00 0.00 64 1018.7
20260504171229 18 11 1.6 11.3 0.00 0.00 0.00 63 1018.3
20260504170726 18 241 3.2 11.3 0.00 0.00 0.00 65 1018.3
20260504170223 18 321 6.4 12.9 0.00 0.00 0.00 65 1018.0
20260504160141 17 203 1.6 6.4 0.00 0.00 0.00 66 1017.6
20260504151109 17 193 0.0 3.2 0.00 0.00 0.00 66 1017.6
20260504150606 17 315 1.6 1.6 0.00 0.00 0.00 64 1017.6
20260504150103 18 347 0.0 1.6 0.00 0.00 0.00 65 1017.6
20260504141032 14 338 0.0 0.0 0.00 0.00 0.00 80 1017.6
20260504140528 14 323 0.0 3.2 0.00 0.00 0.00 80 1017.6
20260504130453 14 332 0.0 0.0 0.00 0.00 0.00 82 1017.0
20260504110340 14 333 0.0 0.0 0.00 0.00 0.00 84 1017.0
20260504100257 13 342 0.0 0.0 0.00 0.00 0.00 87 1017.0
20260504081651 15 328 1.6 4.8 0.00 0.00 0.00 82 1018.0
20260504081147 15 297 1.6 1.6 0.00 0.00 0.00 82 1018.0
20260504080643 15 303 3.2 4.8 0.00 0.00 0.00 82 1018.0
20260504080140 15 333 1.6 1.6 0.00 0.00 0.00 82 1018.0
20260504070108 15 337 1.6 3.2 0.00 0.00 0.00 79 1018.0
20260504050456 15 292 3.2 3.2 0.00 0.00 0.00 74 1017.6
20260504045953 15 255 3.2 4.8 0.00 0.00 0.00 73 1017.3
20260504045449 15 334 0.0 3.2 0.00 0.00 0.00 73 1017.3
20260504044945 15 332 0.0 4.8 0.00 0.00 0.00 73 1017.3
20260504044443 15 330 1.6 3.2 0.00 0.00 0.00 74 1017.3
20260504043940 15 328 0.0 1.6 0.00 0.00 0.00 74 1017.3
20260504043437 15 314 1.6 3.2 0.00 0.00 0.00 74 1017.3
20260504042935 15 257 4.8 6.4 0.00 0.00 0.00 74 1017.3
20260504042431 15 249 3.2 6.4 0.00 0.00 0.00 74 1017.3
20260504041928 15 290 4.8 9.7 0.00 0.00 0.00 74 1017.3
20260504041424 15 327 3.2 6.4 0.00 0.00 0.00 75 1017.0
20260504040920 15 207 3.2 6.4 0.00 0.00 0.00 76 1017.0
20260504040418 15 340 0.0 1.6 0.00 0.00 0.00 77 1017.0
20260504035914 15 194 6.4 6.4 0.00 0.00 0.00 77 1017.0
20260504035412 15 307 3.2 4.8 0.00 0.00 0.00 77 1016.6
20260504034908 15 204 3.2 4.8 0.00 0.00 0.00 78 1017.0
20260504034405 15 263 1.6 6.4 0.00 0.00 0.00 79 1016.6
20260504033902 15 257 4.8 6.4 0.00 0.00 0.00 79 1017.0
20260504033400 15 344 0.0 3.2 0.00 0.00 0.00 80 1017.0
20260504032857 15 251 1.6 3.2 0.00 0.00 0.00 80 1017.0
20260504032354 15 273 3.2 6.4 0.00 0.00 0.00 80 1016.6
20260504031850 15 289 3.2 6.4 0.00 0.00 0.00 80 1016.3
20260504031348 15 267 8.0 9.7 0.00 0.00 0.00 79 1016.3
20260504030844 15 289 3.2 6.4 0.00 0.00 0.00 78 1016.6
20260504030341 15 334 1.6 4.8 0.00 0.00 0.00 78 1016.6
20260504025837 15 324 4.8 6.4 0.00 0.00 0.00 77 1016.6
20260504025334 15 272 1.6 4.8 0.00 0.00 0.00 77 1016.3
20260504024831 15 301 1.6 9.7 0.00 0.00 0.00 77 1016.3
20260504024327 15 321 1.6 3.2 0.00 0.00 0.00 78 1016.3
20260504023824 15 261 6.4 9.7 0.00 0.00 0.00 79 1016.3
20260504023321 15 238 9.7 11.3 0.00 0.00 0.00 79 1016.3
20260504022816 15 328 0.0 9.7 0.00 0.00 0.00 79 1016.3
20260504022314 15 315 3.2 4.8 0.00 0.00 0.00 79 1016.3
20260504021810 15 197 8.0 12.9 0.00 0.00 0.00 78 1016.0
20260504021308 15 256 4.8 9.7 0.00 0.00 0.00 78 1016.0
20260504020804 16 183 4.8 6.4 0.00 0.00 0.00 77 1016.0
20260504020301 15 221 3.2 9.7 0.00 0.00 0.00 77 1016.0
20260504015757 16 261 4.8 6.4 0.00 0.00 0.00 77 1016.0
20260504015254 16 250 1.6 11.3 0.00 0.00 0.00 77 1016.0
20260504014750 16 244 6.4 11.3 0.00 0.00 0.00 76 1016.0
20260504014246 16 299 1.6 3.2 0.00 0.00 0.00 76 1016.0
20260504013744 16 329 1.6 4.8 0.00 0.00 0.00 76 1016.0
20260504013242 16 267 3.2 4.8 0.00 0.00 0.00 75 1015.6
20260504012738 16 229 6.4 9.7 0.00 0.00 0.00 75 1016.0
20260504012236 16 182 8.0 11.3 0.00 0.00 0.00 75 1016.0
20260504011732 16 334 1.6 9.7 0.00 0.00 0.00 75 1016.0
20260504011229 16 221 4.8 4.8 0.00 0.00 0.00 75 1016.0
20260504010725 16 239 4.8 6.4 0.00 0.00 0.00 74 1016.0
20260504010221 16 264 1.6 4.8 0.00 0.00 0.00 75 1016.0
20260504005718 16 216 6.4 9.7 0.00 0.00 0.00 74 1016.0
20260504005215 17 319 3.2 4.8 0.00 0.00 0.00 73 1016.0
20260504004713 16 309 1.6 4.8 0.00 0.00 0.00 73 1015.6
20260504004209 17 264 6.4 9.7 0.00 0.00 0.00 72 1015.6
20260504003706 17 145 4.8 6.4 0.00 0.00 0.00 71 1015.6
20260504003203 17 312 6.4 9.7 0.00 0.00 0.00 69 1016.0
20260504002700 17 339 1.6 6.4 0.00 0.00 0.00 70 1015.6
20260504002157 17 292 1.6 4.8 0.00 0.00 0.00 70 1015.6
20260504001655 17 221 4.8 9.7 0.00 0.00 0.00 70 1015.6
20260504001151 17 238 3.2 3.2 0.00 0.00 0.00 70 1015.6
20260504000648 18 152 3.2 6.4 0.00 0.00 0.00 69 1015.3
20260504000145 17 207 3.2 4.8 0.00 0.00 0.00 70 1015.6
20260503235643 17 310 3.2 9.7 0.00 0.00 0.00 71 1015.3
20260503235140 17 336 1.6 6.4 0.00 0.00 0.00 73 1015.6
20260503234638 17 328 3.2 3.2 0.00 0.00 0.00 73 1015.3
20260503234136 17 318 3.2 9.7 0.00 0.00 0.00 73 1015.6
20260503233632 17 341 3.2 9.7 0.00 0.00 0.00 72 1015.3
20260503233128 17 334 3.2 4.8 0.00 0.00 0.00 73 1015.6
20260503232625 17 327 1.6 4.8 0.00 0.00 0.00 73 1015.6
20260503232122 17 356 1.6 9.7 0.00 0.00 0.00 73 1015.6
20260503231620 17 196 4.8 6.4 0.00 0.00 0.00 73 1015.6
20260503231116 17 302 6.4 11.3 0.00 0.00 0.00 73 1015.6
20260503230614 17 249 4.8 11.3 0.00 0.00 0.00 72 1016.0
20260503230111 17 285 4.8 9.7 0.00 0.00 0.00 72 1016.0
20260503225608 17 287 4.8 11.3 0.00 0.00 0.00 70 1016.0
20260503225108 18 352 3.2 9.7 0.00 0.00 0.00 70 1016.0
20260503224606 17 165 3.2 4.8 0.00 0.00 0.00 70 1016.0
20260503224103 17 232 8.0 11.3 0.00 0.00 0.00 71 1016.0
20260503223601 17 303 3.2 6.4 0.00 0.00 0.00 71 1016.0
20260503223056 17 325 3.2 9.7 0.00 0.00 0.00 69 1016.0
20260503222555 18 194 8.0 11.3 0.00 0.00 0.00 69 1016.0
20260503222052 17 266 4.8 6.4 0.00 0.00 0.00 70 1016.0
20260503221550 17 211 4.8 9.7 0.00 0.00 0.00 70 1016.3
20260503221047 18 213 8.0 9.7 0.00 0.00 0.00 67 1016.3
20260503220543 18 333 6.4 6.4 0.00 0.00 0.00 67 1016.3
20260503220041 18 198 8.0 12.9 0.00 0.00 0.00 67 1016.3
20260503215537 18 286 6.4 11.3 0.00 0.00 0.00 66 1016.3
20260503215034 20 287 4.8 6.4 0.00 0.00 0.00 64 1016.3
20260503214533 19 348 4.8 9.7 0.00 0.00 0.00 63 1016.6
20260503214029 18 321 1.6 6.4 0.00 0.00 0.00 66 1016.3
20260503213528 18 237 4.8 6.4 0.00 0.00 0.00 66 1016.3
20260503213024 18 280 3.2 12.9 0.00 0.00 0.00 67 1016.3
20260503212521 18 354 3.2 17.7 0.00 0.00 0.00 67 1016.6
20260503212019 18 315 1.6 9.7 0.00 0.00 0.00 65 1016.3
20260503211515 18 256 6.4 11.3 0.00 0.00 0.00 62 1016.6
20260503211011 18 309 3.2 11.3 0.00 0.00 0.00 64 1016.6
20260503210508 18 279 4.8 12.9 0.00 0.00 0.00 63 1016.6
20260503210004 18 264 3.2 9.7 0.00 0.00 0.00 65 1016.6
20260503205500 18 234 6.4 11.3 0.00 0.00 0.00 63 1016.3
20260503204956 19 228 6.4 9.7 0.00 0.00 0.00 60 1016.6
20260503204454 18 335 3.2 9.7 0.00 0.00 0.00 62 1016.6
20260503203950 18 284 3.2 6.4 0.00 0.00 0.00 63 1016.6
20260503203448 18 233 6.4 11.3 0.00 0.00 0.00 61 1016.6
20260503202944 18 302 3.2 6.4 0.00 0.00 0.00 62 1017.0